Presure
163 182 172 174 187 178 185 182 187 181 184 190 185 191 186 199 200 192 192 189 193 182 186 166 166 176 185 183 190 181 182 165 176 191 174 183 181 176 195 195 203 203 206
180 182 186 174 178 194 182 183 194 190 185 185 186 193 187 211 197 203 197 195 183 177 189 194 191 183 181 163 190 188 167 175 183 171 181 178 179 194 193 192 212 209 219
181 183 185 178 177 191 183 184 190 190 185 189 189 198 202 187 210 197 199 196 177 195 194 189 188 183 167 191 158 193 192 179 183 174 186 194 187 191 199 195 210 207 225
191 191 193 177 175 170 186 181 187 189 197 199 198 187 190 191 199 221 213 202 199 186 181 181 178 187 179 190 192 173 186 184 193 168 191 190 193 205 189 204 216 212 232
193 194 190 183 183 194 186 182 183 182 187 189 191 191 215 208 210 182 188 202 192 190 193 187 194 192 197 178 179 185 191 197 193 191 168 203 202 203 212 218 219 235 239
200 200 190 189 199 199 184 179 186 181 187 186 180 198 187 200 184 184 198 199 204 212 211 212 185 199 201 205 204 200 190 181 194 193 205 211 196 212 224 219 228 241 228
188 187 190 181 190 190 198 179 181 185 197 188 187 205 202 208 181 194 191 197 204 197 186 179 199 206 203 195 198 176 193 195 198 201 200 207 205 216 215 216 217 234 236
181 192 190 197 196 176 196 181 191 194 186 183 191 203 210 193 196 193 190 201 202 200 197 192 183 187 178 206 197 197 199 198 201 204 200 210 222 215 215 226 224 238 240
191 183 191 204 195 191 188 187 194 187 186 190 191 208 202 204 199 205 198 196 203 201 205 203 193 202 204 187 195 199 201 206 203 202 199 217 213 216 210 233 226 247 247
188 193 190 196 203 201 186 190 184 184 198 182 200 198 190 210 222 229 221 213 207 205 203 213 207 205 205 207 205 208 210 199 208 205 205 205 210 219 207 227 223 248 262
198 179 190 200 207 205 199 187 194 202 192 206 208 219 208 221 243 235 229 227 224 223 220 223 219 218 215 211 212 223 220 226 205 208 216 214 216 228 227 221 236 254 266
193 188 201 198 207 206 204 203 198 191 214 225 231 228 226 233 229 236 231 225 218 215 207 192 214 222 227 216 223 216 221 214 218 215 213 218 226 228 251 257 288 264 301
201 205 206 198 207 198 211 198 193 215 205 234 249 234 230 241 228 230 230 219 221 218 228 224 202 232 238 233 232 228 226 231 218 230 242 239 255 245 262 266 305 298 308
202 190 200 215 211 194 197 227 225 247 248 239 245 225 228 246 237 242 211 216 229 235 239 216 222 215 242 236 232 232 238 241 239 276 288 281 279 273 300 308 302 294 306
199 213 214 201 231 241 231 256 253 243 241 235 238 236 220 207 215 234 233 231 234 240 245 309 306 252 297 335 255 283 296 323 307 311 301 309 292 307 305 305 290 298 316
212 214 223 248 245 243 255 253 237 221 235 234 225 244 240 242 248 252 372 404 398 396 403 403 388 365 348 349 331 339 335 315 329 303 311 304 297 306 290 303 299 322 317
218 225 250 239 262 255 232 219 238 234 220 237 239 248 267 383 360 346 335 357 349 341 331 424 398 393 385 360 343 329 326 318 329 331 322 311 316 300 300 301 317 316 367
258 248 228 216 217 224 243 221 234 255 241 283 386 347 334 315 305 343 335 345 342 344 315 380 311 311 383 367 358 346 344 335 329 329 325 316 317 316 314 318 315 348 317
207 224 226 225 257 259 247 240 317 353 353 330 337 321 339 322 322 324 326 324 332 322 336 341 348 402 391 384 366 351 344 323 332 321 325 319 315 313 317 330 347 319 300
223 228 226 264 259 285 382 362 331 321 342 327 307 293 305 299 313 300 301 315 319 329 331 325 334 339 384 374 360 345 336 338 335 334 331 321 308 316 340 334 317 299 326
249 262 288 280 361 334 322 319 343 328 296 344 331 329 323 321 311 317 307 311 303 312 341 324 317 380 376 366 350 340 335 338 330 319 320 327 332 324 328 317 300 290 324
256 287 302 329 326 338 324 315 325 311 305 318 340 350 342 333 330 323 319 309 304 308 341 329 313 317 355 359 350 346 347 346 337 337 333 317 315 321 317 301 291 312 320
313 331 333 319 312 324 303 302 308 306 312 305 346 349 347 342 338 333 331 323 309 307 343 335 316 307 333 364 355 350 335 326 335 323 310 310 319 325 305 292 288 314 321
319 316 318 306 296 313 302 312 314 317 311 318 353 348 343 335 329 328 324 320 311 318 350 336 319 309 328 323 351 339 325 335 324 322 318 321 319 314 297 289 286 316 319
306 304 314 309 318 309 315 324 320 318 366 363 358 346 340 336 332 329 324 322 325 350 349 334 326 311 329 321 362 344 338 326 328 325 327 324 322 305 290 287 282 324 310
322 321 315 315 322 328 327 348 379 374 365 360 354 348 362 361 357 354 363 361 351 352 344 330 329 319 331 322 316 349 337 331 332 322 319 324 312 295 283 289 283 309 310
Wind_Speed
70 68 68 63 68 68 62 65 62 62 63 64 62 63 64 66 66 66 67 67 68 65 69 56 54 66 77 76 77 78 78 68 83 100 81 95 93 82 114 108 116 110 112
72 74 71 66 66 68 67 65 65 60 62 64 66 68 67 71 68 71 71 72 67 64 71 74 77 71 72 50 83 84 58 68 92 67 93 89 85 113 111 97 124 120 124
70 75 75 68 69 73 70 68 67 66 69 70 70 70 71 68 71 70 72 73 64 76 72 71 74 75 57 88 63 93 95 78 90 74 102 113 101 108 117 105 123 105 124
74 73 75 69 72 75 73 73 72 72 72 74 74 75 72 70 69 72 67 67 69 76 75 74 73 86 75 93 94 72 91 94 104 62 104 106 108 119 90 117 125 106 126
74 68 68 68 75 79 76 74 75 75 75 75 77 78 73 75 73 74 77 80 81 83 85 82 89 88 96 72 78 90 99 105 99 97 62 113 112 112 119 123 114 124 117
73 74 70 73 79 77 77 79 80 81 82 77 78 86 80 70 82 81 83 82 82 89 90 92 80 97 101 104 104 101 98 85 108 99 119 118 93 117 125 116 121 125 97
70 69 76 78 80 77 81 81 84 87 90 87 84 89 82 84 83 88 87 83 83 82 80 78 88 94 96 92 93 74 102 108 113 110 112 115 110 118 111 104 98 121 121
72 72 76 79 79 76 82 85 91 90 91 91 96 98 90 87 89 91 93 89 88 89 90 87 80 85 79 98 97 100 106 109 113 116 101 106 120 104 105 119 109 120 123
73 75 80 84 82 84 86 89 92 92 95 99 102 106 98 99 98 99 98 98 99 97 97 99 99 103 104 85 99 103 104 108 109 107 93 117 113 116 85 128 110 129 117
74 80 80 87 90 92 90 93 93 97 106 93 113 110 89 112 105 101 102 104 102 103 100 105 108 106 109 114 107 111 112 98 111 109 109 109 108 120 86 119 106 120 114
81 78 86 96 89 89 95 95 104 109 105 118 118 112 115 109 97 98 101 103 104 107 109 110 112 115 111 107 110 118 118 119 103 108 115 114 110 120 120 99 114 114 106
86 87 96 92 95 96 99 103 102 100 114 113 110 109 109 102 103 100 101 104 106 107 99 86 108 116 120 111 111 111 112 109 110 109 107 111 117 119 124 116 101 103 90
97 99 104 96 101 99 104 102 100 112 110 108 102 104 106 105 109 107 109 113 113 114 117 113 95 122 126 119 115 113 115 114 108 117 121 121 118 112 111 109 89 88 85
97 92 105 114 109 99 101 115 116 108 104 105 105 111 113 109 112 114 100 110 118 123 124 107 110 103 129 118 115 112 115 119 119 113 102 105 105 106 88 88 84 84 75
95 109 107 104 120 112 109 113 106 106 107 110 111 112 103 92 105 116 120 121 122 126 129 100 101 128 97 89 126 106 102 84 90 90 93 87 96 88 86 78 75 75 71
106 108 121 118 113 113 114 108 107 106 112 112 102 116 115 119 122 124 77 61 58 58 59 61 67 74 81 78 81 76 77 81 78 81 76 85 88 81 79 77 78 74 62
110 119 110 113 109 106 108 104 114 116 103 118 120 123 123 60 62 65 69 59 59 58 59 58 65 66 74 77 72 72 73 77 77 73 76 79 79 76 78 79 76 62 29
106 104 104 103 102 107 113 97 117 121 122 109 60 68 71 75 75 56 58 54 53 52 60 53 57 57 52 54 54 60 65 68 65 66 69 67 67 67 68 68 57 36 31
96 106 108 107 117 117 121 121 93 77 68 74 71 70 57 58 56 56 54 53 52 52 49 47 47 42 44 47 53 56 55 52 55 58 53 54 57 61 57 50 28 29 31
105 111 111 115 116 116 62 62 71 75 66 64 67 73 67 64 58 57 56 53 51 48 47 46 45 42 31 36 32 38 38 40 42 42 44 49 47 49 34 26 27 29 27
113 112 117 115 66 72 75 78 69 69 73 66 66 64 64 62 61 59 56 53 52 49 44 43 43 29 26 28 31 33 34 31 31 32 35 34 29 32 25 26 29 31 29
113 117 107 77 77 70 70 72 68 67 68 69 66 63 61 60 58 56 53 51 50 48 45 40 40 37 29 29 31 32 30 29 28 25 22 27 31 27 27 29 31 29 30
94 75 72 74 75 73 73 74 74 72 70 69 65 61 58 56 54 51 48 46 46 46 41 39 37 36 30 22 22 19 21 24 21 25 28 32 28 27 31 32 31 30 32
75 76 75 76 78 78 77 78 77 74 72 72 63 60 58 55 51 48 46 45 45 43 39 37 36 34 29 28 25 26 27 24 28 30 32 32 29 31 33 32 32 31 35
78 80 81 82 81 81 81 79 77 75 70 66 62 59 57 55 52 49 46 45 44 41 37 35 34 34 29 28 29 32 31 31 31 29 26 28 31 33 33 33 33 33 35
77 78 80 81 81 81 80 78 73 69 66 61 58 57 55 53 50 47 45 42 39 37 36 35 33 33 30 29 27 29 29 29 29 28 28 31 33 34 33 32 32 31 34
Wind_Direction
308 304 305 307 309 304 304 306 306 307 308 307 306 304 304 294 287 289 288 286 285 285 286 286 296 294 293 297 296 303 299 293 307 299 314 310 314 317 313 316 315 318 320
300 300 300 302 304 303 301 302 301 302 304 303 303 302 301 291 296 286 287 287 289 289 286 282 283 291 297 291 295 294 295 298 307 309 311 311 311 310 314 314 314 317 317
295 296 298 300 302 303 300 303 307 306 305 305 304 302 298 301 289 292 287 285 290 283 285 287 292 299 298 296 291 296 296 306 310 310 309 306 310 311 311 316 312 318 319
290 292 294 298 298 305 300 303 306 309 310 307 303 302 302 303 296 280 282 285 283 290 297 299 295 295 301 293 293 300 304 308 304 302 304 308 308 307 311 311 311 318 316
289 293 295 296 298 298 298 301 302 303 305 304 306 303 300 298 294 304 304 292 294 294 289 289 288 290 290 298 302 302 301 300 304 306 297 304 305 306 308 309 315 316 321
289 289 294 296 297 296 296 298 302 300 301 301 301 309 304 298 303 301 300 297 293 288 287 285 287 291 291 292 294 297 302 305 303 306 304 304 310 310 311 315 316 316 322
297 300 296 297 298 298 295 297 298 298 302 300 299 304 299 296 297 297 296 295 291 289 294 298 289 288 292 293 297 300 300 300 302 302 306 306 307 308 311 316 317 319 321
293 293 296 295 295 300 293 294 296 299 296 297 300 302 299 297 297 296 296 294 291 290 290 293 295 301 296 291 296 296 297 299 301 301 305 304 307 310 312 313 315 315 318
292 295 297 300 297 294 293 293 296 294 296 299 300 301 299 298 296 294 295 294 289 290 286 287 296 291 292 298 299 297 297 295 298 302 304 304 308 308 312 310 312 311 314
293 294 296 301 296 292 292 293 293 296 299 298 297 299 298 297 294 287 285 288 290 289 291 286 288 289 291 291 291 291 293 298 296 299 302 303 304 305 309 308 309 307 309
290 295 296 298 295 294 292 291 293 295 294 295 295 294 295 293 290 285 284 284 284 284 285 285 284 284 286 289 292 290 291 290 295 296 295 296 297 300 300 303 302 304 307
295 293 293 295 296 293 292 291 291 292 294 294 294 292 292 292 292 287 285 285 286 287 293 291 289 286 284 288 289 291 291 293 293 294 295 295 295 297 296 297 297 302 296
292 291 294 293 295 290 295 291 293 292 292 295 295 291 290 292 289 287 285 289 288 292 286 288 290 284 284 285 287 287 289 289 290 291 290 289 292 295 294 297 289 292 293
294 292 295 295 292 290 291 296 294 294 294 291 294 289 290 288 286 284 293 294 290 287 285 289 288 287 286 287 287 287 287 287 288 285 282 284 286 290 283 282 284 291 296
291 291 293 287 294 292 291 295 296 293 292 289 288 288 293 292 292 289 289 289 287 284 283 279 276 282 276 270 282 279 276 271 275 266 272 271 274 281 278 281 284 292 295
294 294 296 295 296 296 295 293 291 294 291 293 297 294 294 293 292 290 291 293 291 283 271 266 261 259 264 264 268 263 262 269 268 273 270 270 273 274 282 278 283 287 291
296 296 294 292 292 291 290 297 290 293 301 296 296 296 294 291 291 291 290 292 289 286 286 269 265 264 261 259 262 267 265 268 266 267 266 267 269 270 275 277 281 288 264
292 291 289 289 292 293 291 296 296 294 296 295 294 294 293 294 295 295 294 295 294 292 286 281 284 282 267 262 264 262 260 260 265 269 265 267 270 272 272 276 280 273 253
290 288 288 292 291 292 292 294 295 294 293 294 296 296 296 294 295 295 296 295 296 293 293 291 287 281 277 272 267 269 261 266 263 264 266 265 264 268 272 281 257 245 239
290 289 295 295 295 300 296 295 297 297 296 295 294 295 294 294 294 293 294 297 297 298 295 292 292 289 276 271 265 268 269 261 268 270 265 262 265 272 267 253 234 229 222
289 296 302 301 298 297 298 297 296 295 295 296 296 294 293 292 291 292 291 293 292 295 297 291 290 284 279 271 269 268 269 266 257 255 264 267 253 254 249 228 220 224 214
296 302 301 299 299 299 298 298 299 298 298 300 298 293 292 290 289 288 287 287 288 292 295 290 287 287 275 263 262 263 262 255 256 251 236 238 245 245 224 216 218 219 215
300 299 299 299 299 299 298 298 298 298 298 298 296 292 290 288 287 287 287 285 284 287 288 284 280 281 282 249 250 243 240 248 231 225 231 238 241 225 213 214 216 219 216
300 300 300 299 298 298 298 298 298 297 297 297 292 290 289 287 286 285 284 283 281 284 281 278 276 276 276 274 240 232 243 235 232 232 235 237 227 215 209 213 217 220 215
301 301 300 300 299 298 297 297 296 296 294 292 289 287 286 284 283 282 281 280 280 278 273 270 269 270 267 267 239 234 240 244 242 238 234 225 217 211 211 213 216 216 214
303 302 300 298 297 296 296 296 294 293 291 289 286 285 281 279 278 278 276 273 272 269 265 264 261 261 257 259 258 240 243 240 236 229 225 218 211 209 212 216 215 218 217